Regional Weather Roundup
Issued by NWS

Home | Current Version | Previous Version | Graphics & Text | Print | Product List | Glossary Off
Versions: 1 2 3 4 5 6 7 8 9 10 11 12 13 14 15 16 17 18 19 20 21 22 23 24 25 26 27 28 29 30 31 32 33 34 35 36 37 38 39 40 41 42 43 44 45 46 47 48 49 50

000
ASUS43 KTOP 252308
RWRKS

WEATHER ROUNDUP FOR KANSAS
NATIONAL WEATHER SERVICE GOODLAND KS
600 PM CDT MON MAY 25 2015

NOTE:  "FAIR" INDICATES FEW OR NO CLOUDS BELOW 12,000 FEET WITH NO
SIGNIFICANT WEATHER AND/OR OBSTRUCTIONS TO VISIBILITY.

KSZ001>006-013>018-027>032-041>047-260000-
NORTHWEST KANSAS

CITY           SKY/WX    TMP DP  RH WIND       PRES   REMARKS
GOODLAND       SUNNY     69  47  45 NW17      29.84F
HAYS           CLOUDY    73  57  56 S10       29.78R
HILL CITY      MOSUNNY   76  52  43 W8        29.77S
RUSSELL        CLOUDY    74  60  61 W9        29.77R
$$

KSZ061>065-074>080-084>089-260000-
SOUTHWEST KANSAS

CITY           SKY/WX    TMP DP  RH WIND       PRES   REMARKS
DODGE CITY     CLOUDY    73  55  53 SW14      29.82S
ELKHART          N/A     75  48  38 S7          N/A
GARDEN CITY    CLOUDY    73  51  46 S8        29.82R
GREAT BEND     CLOUDY    73  63  68 NW12      29.76S
LIBERAL        CLOUDY    73  52  46 S18       29.84F
PRATT          CLOUDY    72  55  56 W14       29.80F
$$

KSZ066>073-081>083-090>101-260000-
SOUTHEAST KANSAS

CITY           SKY/WX    TMP DP  RH WIND       PRES   REMARKS
CHANUTE        CLOUDY    75  68  78 S9        29.82F
COFFEYVILLE    CLOUDY    75  69  81 SE6       29.80F
HUTCHINSON     CLOUDY    78  57  48 SW18G25   29.77R
MEDICINE LODGE   N/A     75  53  46 SW8       29.77F
NEWTON         CLOUDY    72  63  73 S13       29.81S
PARSONS        CLOUDY    76  68  76 S3        29.83F
WICHITA INTL   TSTM      72  67  84 S13       29.79S
WICHITA JABRA  CLOUDY    72  60  66 SW7       29.78F
WINFIELD       CLOUDY    74  65  73 S15       29.80F
$$

KSZ007>012-019>026-033>040-048>060-102>105-260000-
NORTHEAST KANSAS

CITY           SKY/WX    TMP DP  RH WIND       PRES   REMARKS
CONCORDIA      PTSUNNY   67  54  63 S22G39    29.79R
EMPORIA        CLOUDY    77  64  64 S16G29    29.79S
LAWRENCE       PTSUNNY   80  63  55 S17G28    29.79F
MANHATTAN      CLOUDY    68  62  81 NW10G31   29.82R
OLATHE IND     PTSUNNY   78  64  61 S15G25    29.82S
OLATHE EXE     PTSUNNY   78  65  63 S14G28    29.81S
SALINA         LGT RAIN  64  54  69 SW16      29.79R
TOPEKA BILLARD CLOUDY    79  66  64 S15G23    29.79R
TOPEKA FORBES  CLOUDY    80  65  59 S16       29.79R
$$



USA.gov is the U.S. government's official web portal to all federal, state and local government web resources and services.